Погода в Уртазыме

Россия / Оренбургская область     52°12′13″N   58°50′33″E
темп.,
°C
ветер,
м/с
пор.,
м/с
влажн.,
%
обл.,
%
осадки,
мм/ч
давл.,
гПа
погр.,
м
7 августа, вс
вс723:00+20св455362 0.0 101976
02:00+18св34615 0.0 101958
05:00+16ссв476797 0.0 1020110
08:00+19ссв465839 0.0 1020230
11:00+25св45415 0.0 10191136
14:00+28св5633100 0.0 10182826
17:00+24всв3548100 0.0 1017365
20:00+23ссв345394 0.0 101762
8 августа, пн
пн823:00+19ссв357012 0.0 101881
02:00+18ссв367757 0.0 1018103
05:00+17ссв3680100 0.0 1018104
08:00+20ссв476957 0.3 1019263
11:00+23св46598 0.6 1018775
14:00+27ссв6745100 0.0 10172221
17:00+24св4754100 0.0 1017699
20:00+23ссв3461100 0.0 101775
9 августа, вт
вт923:00+19св336522 0.0 101846
02:00+18с3466100 0.0 101870
05:00+17с35775 0.0 101882
08:00+19ссв47685 0.0 1019280
11:00+24св575211 0.0 10181411
14:00+26св563957 0.0 10182280
17:00+23в5649100 0.0 1018620
20:00+22ссв225466 0.0 101833
10 августа, ср
ср1023:00+19с22620 0.0 101814
02:00+18с33655 0.0 101828
05:00+17с33690 0.0 101930
08:00+20с23593 0.0 1019163
11:00+26с22425 0.0 1019958
14:00+28ссв23328 0.0 10182327
17:00+29ссв233154 0.0 10172507
20:00+25ссз354798 0.0 101787
11 августа, чт
чт1123:00+23ссв234950 0.0 101837
02:00+20св116035 0.0 101811
05:00+19с11635 0.0 101811
08:00+22ссз11561 0.0 1019125
11:00+27зюз12410 0.0 1019836
14:00+30зюз123258 0.0 10172799
17:00+26з7746100 0.1 1017528
20:00+25з344621 0.0 101747